Date,TemperatureHighF,TemperatureAvgF,TemperatureLowF,DewpointHighF,DewpointAvgF,DewpointLowF,HumidityHigh,HumidityAvg,HumidityLow,PressureMaxIn,PressureMinIn,WindSpeedMaxMPH,WindSpeedAvgMPH,GustSpeedMaxMPH,PrecipitationSumIn
2013-9-1,91,77,67,73,70,66,98,79,50,29.79,29.70,8,-301,0,0.00
2013-9-2,90,78,70,72,70,66,96,77,48,29.75,29.67,13,-314,0,0.00
2013-9-3,83,75,66,71,62,55,91,66,41,29.91,29.67,18,-423,0,0.00
2013-9-4,81,68,56,60,54,49,91,64,34,30.05,29.91,11,-430,0,0.00
2013-9-5,81,71,61,62,56,49,80,61,44,30.07,29.97,16,-381,0,0.00
2013-9-6,75,64,55,49,47,44,76,56,37,30.22,30.08,9,2,0,0.00
2013-9-7,81,66,52,61,54,48,88,68,44,30.10,29.89,8,1,0,0.00
2013-9-8,86,73,63,65,61,56,89,68,49,30.00,29.83,12,2,0,0.00
2013-9-9,78,68,60,65,56,47,89,67,54,30.16,30.00,10,2,0,0.00
2013-9-10,92,77,67,72,69,65,98,78,48,30.12,30.03,9,1,0,0.00
2013-9-11,93,81,72,74,72,69,97,76,47,30.09,29.95,11,1,0,0.00
2013-9-12,91,76,69,74,70,65,98,84,49,29.94,29.69,11,2,0,0.17
2013-9-13,77,68,57,67,56,48,94,69,40,29.91,29.65,21,7,0,0.00
2013-9-14,67,58,50,49,45,43,82,64,43,30.11,29.91,13,4,0,0.00
2013-9-15,76,62,48,57,50,44,89,68,44,30.19,30.03,8,1,0,0.00
2013-9-16,69,63,58,61,56,52,97,81,61,30.19,29.98,14,2,0,0.10
2013-9-17,66,57,48,53,43,36,80,62,38,30.39,30.19,13,2,0,0.01
2013-9-18,70,57,45,49,44,40,90,66,39,30.30,30.14,10,1,0,0.00
2013-9-19,76,62,50,58,52,47,95,73,48,30.15,30.02,7,1,0,0.00
2013-9-20,79,67,55,61,58,54,98,77,53,30.04,29.90,11,2,0,0.00
2013-9-21,70,64,61,66,61,59,99,90,75,29.90,29.64,14,4,0,0.58
2013-9-22,70,61,54,61,54,48,99,78,52,29.91,29.68,13,4,0,0.01
2013-9-23,64,56,51,49,45,42,86,68,48,30.06,29.91,13,3,0,0.00
2013-9-24,71,57,46,50,46,43,90,67,43,30.08,29.91,11,2,0,0.00
2013-9-25,74,61,50,50,46,40,89,60,30,29.95,29.83,8,1,0,0.00
2013-9-26,75,63,53,52,48,44,78,61,39,30.02,29.88,8,1,0,0.00
2013-9-27,70,61,53,58,54,50,91,79,61,30.18,30.02,6,0,0,0.00
2013-9-28,66,60,55,57,54,51,97,82,60,30.26,30.17,6,0,0,0.00
2013-9-29,71,60,51,56,52,47,98,76,46,30.17,30.01,12,1,0,0.00
2013-9-30,75,62,52,56,53,51,98,75,46,30.05,29.93,7,0,0,0.00